Oakes, ND

6:28 PM CDT on September 21, 2017 (GMT -0500)
Oakes

Weather History for K2D5 - December, 2012

Change the Weather History Date:

Sunday, December 9, 2012

  Actual Average (KP67) Record (KP67)
Temperature  
Mean Temperature 6 °F -  
Max Temperature 15 °F 25 °F 28 °F (1997)
Min Temperature -5 °F 13 °F 17 °F (1996)
Degree Days  
Heating Degree Days 58    
Moisture  
Dew Point 3 °F    
Average Humidity 86    
Maximum Humidity 100    
Minimum Humidity 72    
Precipitation  
Precipitation 0.58 in - - ()
Sea Level Pressure  
Sea Level Pressure 30.14 in    
Wind  
Wind Speed 26 mph (NNW)    
Max Wind Speed 38 mph    
Max Gust Speed 50 mph    
Visibility 5 miles    
Events Rain , Snow    
Averages and records for this station are not official NWS values.
T = Trace of Precipitation, MM = Missing Value Source: NWS Daily Summary

Daily Weather History Graph

Daily Weather History Graph

Search for Another Location

Airport or City:

Trip Planner

Search our weather history database for the weather conditions in past years. The results will help you decide how hot, cold, wet, or windy it might be!

Date:

Astronomy

Dec. 09, 2012 Rise Set
Actual Time 8:03 AM CST 4:46 PM CST
Civil Twilight 7:28 AM CST 5:20 PM CST
Nautical Twilight 6:51 AM CST 5:58 PM CST
Astronomical Twilight 6:14 AM CST 6:35 PM CST
Moon 3:27 AM CST (12/9) 2:03 PM CST (12/9)
Length of Visible Light 9h 51m
Length of Day
8h 42m
Waning Crescent, 18% of the Moon is Illuminated
Dec 9
Waning Crescent
Dec 13
New
Dec 19
First Quarter
Dec 28
Full
Jan 4
Last Quarter

Hourly Weather History & Observations

Time (CST) Temp. Windchill Dew Point Humidity Pressure Visibility Wind Dir Wind Speed Gust Speed Precip Events Conditions
12:15 AM 15.8 °F -3.4 °F 14.0 °F 93% 29.95 in 3.0 mi NNE 26.5 mph 31.1 mph 0.04 in Snow Light Snow
12:35 AM 14.0 °F -6.2 °F 14.0 °F 100% 29.96 in 2.5 mi NNE 27.6 mph 33.4 mph 0.19 in Rain Light Freezing Rain
1:15 AM 14.0 °F -5.8 °F 14.0 °F 100% 29.95 in 1.5 mi North 26.5 mph 34.5 mph 0.04 in Snow Light Snow
1:35 AM 14.0 °F -6.2 °F 12.2 °F 93% 29.96 in 2.0 mi NNE 27.6 mph 34.5 mph 0.11 in Rain Light Freezing Rain
1:55 AM 14.0 °F -6.5 °F 10.4 °F 86% 29.96 in 2.0 mi North 28.8 mph 35.7 mph 0.14 in Rain Light Freezing Rain
2:15 AM 12.2 °F -8.9 °F 10.4 °F 92% 29.97 in 2.0 mi North 28.8 mph - 0.02 in Snow Light Snow
2:35 AM 12.2 °F -8.2 °F 10.4 °F 92% 29.98 in 2.0 mi North 26.5 mph 34.5 mph 0.04 in Snow Light Snow
2:55 AM 10.4 °F -10.3 °F 10.4 °F 100% 29.99 in 1.8 mi North 25.3 mph 34.5 mph 0.08 in Snow Light Snow
3:15 AM 10.4 °F -11.0 °F 10.4 °F 100% 29.99 in 2.0 mi North 27.6 mph 34.5 mph 0.03 in Rain Light Freezing Rain
3:35 AM 10.4 °F -10.3 °F 10.4 °F 100% 29.99 in 2.0 mi North 25.3 mph 34.5 mph 0.06 in Snow Light Snow
3:55 AM 10.4 °F -13.0 °F 10.4 °F 100% 29.99 in 2.0 mi North 34.5 mph 38.0 mph 0.09 in Rain Light Freezing Rain
4:15 AM 10.4 °F -11.7 °F 10.4 °F 100% 29.99 in 1.8 mi North 29.9 mph 35.7 mph N/A Snow Light Snow
4:35 AM 10.4 °F -12.7 °F 10.4 °F 100% 30.00 in 1.8 mi North 33.4 mph 39.1 mph 0.02 in Snow Light Snow
4:55 AM 10.4 °F -10.3 °F 8.6 °F 92% 30.02 in 1.8 mi North 25.3 mph 38.0 mph 0.06 in Snow Light Snow
5:15 AM 10.4 °F -12.3 °F 10.4 °F 100% 30.03 in 1.8 mi North 32.2 mph 38.0 mph 0.02 in Snow Light Snow
5:35 AM 10.4 °F -11.4 °F 8.6 °F 92% 30.04 in 1.5 mi North 28.8 mph 43.7 mph 0.04 in Rain Light Freezing Rain
5:55 AM 10.4 °F -12.0 °F 8.6 °F 92% 30.04 in 1.2 mi North 31.1 mph 46.0 mph 0.05 in Snow Light Snow
6:15 AM 10.4 °F -13.0 °F 8.6 °F 92% 30.05 in 1.0 mi North 34.5 mph 49.5 mph 0.01 in Snow Light Snow
6:35 AM 8.6 °F -14.1 °F 6.8 °F 92% 30.06 in 0.8 mi North 29.9 mph 44.9 mph 0.03 in Rain Light Freezing Rain
6:55 AM 8.6 °F -16.3 °F 6.8 °F 92% 30.07 in 0.8 mi North 38.0 mph 46.0 mph 0.05 in Snow Light Snow
7:15 AM 8.6 °F -14.8 °F 6.8 °F 92% 30.08 in 1.2 mi North 32.2 mph 41.4 mph 0.02 in Snow Light Snow
7:35 AM 6.8 °F -17.6 °F 5.0 °F 92% 30.10 in 1.5 mi North 33.4 mph 44.9 mph 0.04 in Snow Light Snow
7:55 AM 6.8 °F -17.6 °F 1.4 °F 79% 30.11 in 1.0 mi North 33.4 mph 43.7 mph 0.06 in Snow Light Snow
8:15 AM 5.0 °F -20.4 °F 1.4 °F 85% 30.13 in 1.0 mi North 34.5 mph 42.6 mph N/A Snow Light Snow
8:35 AM 5.0 °F -19.4 °F -0.4 °F 78% 30.14 in 1.5 mi North 31.1 mph 43.7 mph 0.02 in Snow Light Snow
8:55 AM 5.0 °F -19.4 °F -0.4 °F 78% 30.15 in 2.0 mi North 31.1 mph 41.4 mph 0.02 in Rain Light Freezing Rain
9:15 AM 5.0 °F -19.4 °F -0.4 °F 78% 30.17 in 3.0 mi North 31.1 mph 38.0 mph N/A Rain Light Freezing Rain
9:35 AM 6.8 °F -16.9 °F -0.4 °F 72% 30.17 in 2.5 mi North 31.1 mph 38.0 mph N/A Rain Light Freezing Rain
9:55 AM 6.8 °F -18.8 °F -0.4 °F 72% 30.17 in 1.2 mi North 38.0 mph 43.7 mph 0.01 in Rain Light Freezing Rain
10:15 AM 6.8 °F -18.5 °F -0.4 °F 72% 30.18 in 1.2 mi North 36.8 mph 44.9 mph N/A Rain Light Freezing Rain
10:35 AM 6.8 °F -18.2 °F 1.4 °F 79% 30.18 in 1.0 mi North 35.7 mph 42.6 mph 0.01 in Rain Light Freezing Rain
10:55 AM 6.8 °F -17.3 °F 1.4 °F 79% 30.19 in 1.2 mi North 32.2 mph 44.9 mph 0.02 in Rain Light Freezing Rain
11:15 AM 6.8 °F -18.2 °F 3.2 °F 85% 30.19 in 1.8 mi North 35.7 mph 43.7 mph N/A Rain Light Freezing Rain
11:35 AM 8.6 °F -13.4 °F 3.2 °F 79% 30.20 in 3.0 mi North 27.6 mph 38.0 mph N/A Rain Light Freezing Rain
11:55 AM 6.8 °F -17.3 °F 3.2 °F 85% 30.20 in 3.0 mi North 32.2 mph 36.8 mph N/A Rain Light Freezing Rain
12:15 PM 6.8 °F -15.5 °F 5.0 °F 92% 30.20 in 3.0 mi NNW 26.5 mph 35.7 mph N/A Rain Light Freezing Rain
12:35 PM 6.8 °F -16.2 °F 3.2 °F 85% 30.20 in 3.0 mi NNW 28.8 mph 36.8 mph N/A Rain Light Freezing Rain
12:55 PM 6.8 °F -16.6 °F 3.2 °F 85% 30.21 in 2.5 mi NNW 29.9 mph 36.8 mph N/A Rain Light Freezing Rain
1:15 PM 6.8 °F -15.9 °F 3.2 °F 85% 30.20 in 3.0 mi NNW 27.6 mph 34.5 mph N/A Rain Light Freezing Rain
1:35 PM 6.8 °F -16.6 °F 3.2 °F 85% 30.20 in 5.0 mi NNW 29.9 mph 36.8 mph N/A Rain Light Freezing Rain
1:55 PM 8.6 °F -14.5 °F 1.4 °F 73% 30.19 in 4.0 mi North 31.1 mph 34.5 mph N/A Rain Light Freezing Rain
2:15 PM 6.8 °F -16.9 °F 1.4 °F 79% 30.19 in 4.0 mi NNW 31.1 mph 38.0 mph N/A Rain Light Freezing Rain
2:35 PM 6.8 °F -17.3 °F 1.4 °F 79% 30.19 in 5.0 mi NNW 32.2 mph 38.0 mph N/A Rain Light Freezing Rain
2:55 PM 6.8 °F -15.9 °F 1.4 °F 79% 30.20 in 5.0 mi NNW 27.6 mph 38.0 mph N/A Rain Light Freezing Rain
3:15 PM 6.8 °F -15.1 °F 1.4 °F 79% 30.21 in 6.0 mi NNW 25.3 mph 34.5 mph N/A   Haze
3:35 PM 6.8 °F -15.5 °F 1.4 °F 79% 30.22 in 10.0 mi NNW 26.5 mph 29.9 mph N/A   Unknown
3:55 PM 6.8 °F -14.3 °F 1.4 °F 79% 30.22 in 10.0 mi NNW 23.0 mph 28.8 mph N/A   Unknown
4:15 PM 6.8 °F -12.9 °F -0.4 °F 72% 30.22 in 10.0 mi NNW 19.6 mph - N/A   Clear
4:35 PM 6.8 °F -12.4 °F -0.4 °F 72% 30.22 in 10.0 mi NNW 18.4 mph 24.2 mph N/A   Clear
4:55 PM 5.0 °F -14.7 °F -0.4 °F 78% 30.23 in 10.0 mi NNW 18.4 mph - N/A   Unknown
5:15 PM 5.0 °F -15.7 °F -0.4 °F 78% 30.24 in 10.0 mi NNW 20.7 mph - N/A   Unknown
5:35 PM 3.2 °F -16.5 °F -0.4 °F 85% 30.24 in 10.0 mi NW 17.3 mph - N/A   Unknown
5:55 PM 3.2 °F -16.5 °F -0.4 °F 85% 30.24 in 10.0 mi NW 17.3 mph 23.0 mph N/A   Clear
6:15 PM 3.2 °F -17.6 °F -0.4 °F 85% 30.25 in 10.0 mi NW 19.6 mph - N/A   Clear
6:35 PM 1.4 °F -18.8 °F -2.2 °F 85% 30.25 in 10.0 mi NW 17.3 mph 23.0 mph N/A   Unknown
6:55 PM 1.4 °F -17.6 °F -2.2 °F 85% 30.25 in 10.0 mi NW 15.0 mph - N/A   Unknown
7:15 PM -0.4 °F -17.6 °F -2.2 °F 92% 30.26 in 10.0 mi NW 11.5 mph - N/A   Clear
7:35 PM -0.4 °F -15.7 °F -4.0 °F 85% 30.25 in 10.0 mi NNW 9.2 mph - N/A   Clear
7:55 PM -0.4 °F -19.9 °F -2.2 °F 92% 30.23 in 10.0 mi NNW 15.0 mph - N/A   Clear
8:15 PM -0.4 °F -18.4 °F -2.2 °F 92% 30.22 in 10.0 mi NNW 12.7 mph - N/A   Unknown
8:35 PM -0.4 °F -13.4 °F -4.0 °F 85% 30.21 in 10.0 mi NNW 6.9 mph - N/A   Unknown
8:55 PM -0.4 °F -16.7 °F -4.0 °F 85% 30.21 in 10.0 mi NNW 10.4 mph - N/A   Clear
9:15 PM -0.4 °F -15.7 °F -4.0 °F 85% 30.20 in 10.0 mi NNW 9.2 mph - N/A   Clear
9:35 PM -2.2 °F -12.5 °F -4.0 °F 92% 30.19 in 10.0 mi NNW 4.6 mph - N/A   Clear
9:55 PM -2.2 °F - -4.0 °F 92% 30.20 in 10.0 mi Calm Calm - N/A   Unknown
10:15 PM -2.2 °F -14.2 °F -5.8 °F 85% 30.19 in 10.0 mi WNW 5.8 mph - N/A   Unknown
10:35 PM -2.2 °F -15.6 °F -5.8 °F 85% 30.19 in 10.0 mi NW 6.9 mph - N/A   Unknown
10:55 PM -2.2 °F -14.2 °F -4.0 °F 92% 30.18 in 10.0 mi NW 5.8 mph - N/A   Clear
11:15 PM -2.2 °F -10.4 °F -4.0 °F 92% 30.16 in 10.0 mi WNW 3.5 mph - N/A   Clear
11:35 PM -2.2 °F - -5.8 °F 85% 30.16 in 10.0 mi Calm Calm - N/A   Unknown
11:55 PM -5.8 °F -14.5 °F -9.4 °F 84% 30.15 in 10.0 mi SW 3.5 mph - N/A   Unknown